Location: Hilton Head Island
(32.2163°N, 80.7526°W)
Time: 19:04:13
(UTC-04:00)

A-11 Canister half - Pass Details

Date: 23 February 2026
Orbit: 1525 x 1683 km, 47.3° (Epoch: 10 March)

Event Time Altitude Azimuth Distance (km) Brightness Sun altitude
Rises 20:21:06 0° 307° (NW) 4,681 12.4 -27.2°
Reaches altitude 10° 20:24:18 10° 312° (NW) 3,693 11.6 -27.8°
Maximum altitude 20:33:17 51° 27° (NNE) 1,859 9.2 -29.7°
Enters shadow 20:34:36 48° 52° (NE) 1,919 9.1 -30.0°
